| time (UTC) | temp C | wind direction | speed KPH | gust KPH | rain 1hr cm | rain 24hr cm | rain mn cm | humidity % | barometer mb |
| 20260906073025 | 28 | 17 | 8.0 | 22.5 | 0.00 | 0.00 | 0.00 | 39 | 1017.5 |
| 20260906071522 | 28 | 351 | 9.7 | 19.3 | 0.00 | 0.00 | 0.00 | 39 | 1017.4 |
| 20260906070022 | 28 | 346 | 8.0 | 17.7 | 0.00 | 0.00 | 0.00 | 41 | 1017.3 |
| 20260906064512 | 27 | 15 | 6.4 | 22.5 | 0.00 | 0.00 | 0.00 | 41 | 1017.0 |
| 20260906063008 | 27 | 30 | 8.0 | 17.7 | 0.00 | 0.00 | 0.00 | 41 | 1017.0 |
| 20260906061509 | 27 | 38 | 4.8 | 8.0 | 0.00 | 0.00 | 0.00 | 41 | 1016.8 |
| 20260906060059 | 27 | 5 | 1.6 | 6.4 | 0.00 | 0.00 | 0.00 | 42 | 1016.8 |
| 20260906054607 | 26 | 65 | 0.0 | 1.6 | 0.00 | 0.00 | 0.00 | 44 | 1016.8 |
| 20260906053049 | 25 | 65 | 0.0 | 1.6 | 0.00 | 0.00 | 0.00 | 46 | 1016.6 |
| 20260906051546 | 24 | 29 | 0.0 | 1.6 | 0.00 | 0.00 | 0.00 | 48 | 1016.6 |
| 20260906050045 | 23 | 32 | 0.0 | 4.8 | 0.00 | 0.00 | 0.00 | 49 | 1016.6 |
| 20260906044538 | 22 | 76 | 0.0 | 3.2 | 0.00 | 0.00 | 0.00 | 52 | 1016.3 |
| 20260906043034 | 22 | 76 | 0.0 | 0.0 | 0.00 | 0.00 | 0.00 | 52 | 1016.1 |
| 20260906041532 | 22 | 76 | 1.6 | 4.8 | 0.00 | 0.00 | 0.00 | 51 | 1015.8 |
| 20260906040043 | 22 | 77 | 0.0 | 1.6 | 0.00 | 0.00 | 0.00 | 52 | 1015.7 |
| 20260906034543 | 22 | 77 | 1.6 | 9.7 | 0.00 | 0.00 | 0.00 | 52 | 1015.6 |
| 20260906033029 | 21 | 76 | 3.2 | 4.8 | 0.00 | 0.00 | 0.00 | 55 | 1015.6 |
| 20260906031558 | 22 | 76 | 0.0 | 0.0 | 0.00 | 0.00 | 0.00 | 55 | 1015.5 |
| 20260906030026 | 22 | 76 | 0.0 | 0.0 | 0.00 | 0.00 | 0.00 | 53 | 1015.3 |
| 20260906024549 | 22 | 76 | 0.0 | 0.0 | 0.00 | 0.00 | 0.00 | 53 | 1015.3 |
| 20260906023025 | 22 | 76 | 0.0 | 0.0 | 0.00 | 0.00 | 0.00 | 52 | 1015.2 |
| 20260906021524 | 22 | 76 | 0.0 | 1.6 | 0.00 | 0.00 | 0.00 | 52 | 1015.2 |
| 20260906020023 | 22 | 86 | 0.0 | 0.0 | 0.00 | 0.00 | 0.00 | 51 | 1015.3 |
| 20260906014522 | 22 | 86 | 0.0 | 0.0 | 0.00 | 0.00 | 0.00 | 50 | 1015.2 |
| 20260906013021 | 22 | 86 | 0.0 | 0.0 | 0.00 | 0.00 | 0.00 | 50 | 1015.4 |
| 20260906011520 | 22 | 86 | 0.0 | 0.0 | 0.00 | 0.00 | 0.00 | 49 | 1015.3 |
| 20260906010039 | 22 | 86 | 0.0 | 1.6 | 0.00 | 0.00 | 0.00 | 49 | 1015.2 |
| 20260906004517 | 22 | 91 | 0.0 | 1.6 | 0.00 | 0.00 | 0.00 | 50 | 1015.2 |
| 20260906003016 | 22 | 91 | 0.0 | 0.0 | 0.00 | 0.00 | 0.00 | 51 | 1015.2 |
| 20260906001516 | 23 | 91 | 0.0 | 3.2 | 0.00 | 0.00 | 0.00 | 49 | 1015.2 |
| 20260906000019 | 23 | 55 | 0.0 | 3.2 | 0.00 | 0.00 | 0.00 | 49 | 1015.4 |
| 20260905234512 | 23 | 80 | 0.0 | 3.2 | 0.00 | 0.00 | 0.00 | 50 | 1015.3 |
| 20260905233009 | 23 | 80 | 0.0 | 3.2 | 0.00 | 0.00 | 0.00 | 49 | 1015.3 |
| 20260905231507 | 23 | 80 | 0.0 | 3.2 | 0.00 | 0.00 | 0.00 | 48 | 1015.5 |
| 20260905230013 | 23 | 80 | 0.0 | 0.0 | 0.00 | 0.00 | 0.00 | 48 | 1015.5 |
| 20260905224515 | 23 | 80 | 0.0 | 4.8 | 0.00 | 0.00 | 0.00 | 46 | 1015.5 |
| 20260905223003 | 24 | 66 | 1.6 | 6.4 | 0.00 | 0.00 | 0.00 | 45 | 1015.5 |
| 20260905221505 | 24 | 56 | 1.6 | 4.8 | 0.00 | 0.00 | 0.00 | 44 | 1015.6 |
| 20260905220100 | 24 | 52 | 0.0 | 4.8 | 0.00 | 0.00 | 0.00 | 45 | 1015.5 |
| 20260905214558 | 24 | 85 | 1.6 | 4.8 | 0.00 | 0.00 | 0.00 | 45 | 1015.5 |
| 20260905213101 | 24 | 53 | 0.0 | 3.2 | 0.00 | 0.00 | 0.00 | 45 | 1015.7 |
| 20260905211607 | 25 | 53 | 1.6 | 4.8 | 0.00 | 0.00 | 0.00 | 46 | 1015.8 |
| 20260905204552 | 25 | 30 | 0.0 | 0.0 | 0.00 | 0.00 | 0.00 | 48 | 1015.8 |
| 20260905203050 | 25 | 30 | 0.0 | 0.0 | 0.00 | 0.00 | 0.00 | 49 | 1015.8 |
| 20260905201556 | 25 | 30 | 0.0 | 1.6 | 0.00 | 0.00 | 0.00 | 48 | 1015.8 |
| 20260905194549 | 25 | 89 | 0.0 | 4.8 | 0.00 | 0.00 | 0.00 | 49 | 1015.8 |
| 20260905191549 | 26 | 143 | 0.0 | 3.2 | 0.00 | 0.00 | 0.00 | 48 | 1015.8 |
| 20260905190047 | 26 | 145 | 0.0 | 1.6 | 0.00 | 0.00 | 0.00 | 46 | 1015.8 |
| 20260905184546 | 27 | 150 | 0.0 | 1.6 | 0.00 | 0.00 | 0.00 | 45 | 1015.8 |
| 20260905183046 | 27 | 171 | 0.0 | 1.6 | 0.00 | 0.00 | 0.00 | 44 | 1015.7 |
| 20260905181545 | 27 | 171 | 0.0 | 4.8 | 0.00 | 0.00 | 0.00 | 43 | 1015.5 |
| 20260905180049 | 28 | 162 | 1.6 | 8.0 | 0.00 | 0.00 | 0.00 | 43 | 1015.4 |
| 20260905174550 | 28 | 156 | 0.0 | 8.0 | 0.00 | 0.00 | 0.00 | 43 | 1015.3 |
| 20260905173056 | 28 | 188 | 1.6 | 8.0 | 0.00 | 0.00 | 0.00 | 45 | 1015.1 |
| 20260905171541 | 28 | 263 | 3.2 | 11.3 | 0.00 | 0.00 | 0.00 | 47 | 1015.1 |
| 20260905170041 | 29 | 232 | 4.8 | 11.3 | 0.00 | 0.00 | 0.00 | 46 | 1015.0 |
| 20260905164540 | 30 | 255 | 8.0 | 14.5 | 0.00 | 0.00 | 0.00 | 45 | 1014.9 |
| 20260905163040 | 30 | 217 | 6.4 | 14.5 | 0.00 | 0.00 | 0.00 | 41 | 1014.8 |
| 20260905161539 | 30 | 205 | 8.0 | 14.5 | 0.00 | 0.00 | 0.00 | 38 | 1014.9 |
| 20260905160039 | 31 | 209 | 6.4 | 14.5 | 0.00 | 0.00 | 0.00 | 39 | 1014.9 |
| 20260905154538 | 31 | 251 | 4.8 | 14.5 | 0.00 | 0.00 | 0.00 | 36 | 1014.8 |
| 20260905153037 | 31 | 211 | 6.4 | 12.9 | 0.00 | 0.00 | 0.00 | 36 | 1014.8 |
| 20260905151546 | 32 | 236 | 8.0 | 14.5 | 0.00 | 0.00 | 0.00 | 36 | 1014.7 |
| 20260905150036 | 32 | 162 | 3.2 | 12.9 | 0.00 | 0.00 | 0.00 | 33 | 1014.7 |
| 20260905144535 | 33 | 260 | 6.4 | 14.5 | 0.00 | 0.00 | 0.00 | 34 | 1014.7 |
| 20260905143045 | 33 | 163 | 4.8 | 12.9 | 0.00 | 0.00 | 0.00 | 31 | 1014.8 |
| 20260905141532 | 33 | 222 | 8.0 | 17.7 | 0.00 | 0.00 | 0.00 | 31 | 1014.9 |
| 20260905140026 | 33 | 221 | 8.0 | 11.3 | 0.00 | 0.00 | 0.00 | 28 | 1015.0 |
| 20260905134532 | 33 | 184 | 6.4 | 16.1 | 0.00 | 0.00 | 0.00 | 30 | 1015.1 |
| 20260905133021 | 33 | 232 | 6.4 | 12.9 | 0.00 | 0.00 | 0.00 | 29 | 1015.3 |
| 20260905131522 | 33 | 231 | 6.4 | 16.1 | 0.00 | 0.00 | 0.00 | 30 | 1015.4 |
| 20260905130017 | 33 | 166 | 3.2 | 11.3 | 0.00 | 0.00 | 0.00 | 30 | 1015.6 |
| 20260905124524 | 33 | 194 | 6.4 | 12.9 | 0.00 | 0.00 | 0.00 | 31 | 1015.7 |
| 20260905123014 | 33 | 210 | 6.4 | 17.7 | 0.00 | 0.00 | 0.00 | 31 | 1015.9 |
| 20260905121514 | 33 | 224 | 8.0 | 12.9 | 0.00 | 0.00 | 0.00 | 31 | 1016.1 |
| 20260905120012 | 33 | 259 | 11.3 | 16.1 | 0.00 | 0.00 | 0.00 | 31 | 1016.2 |
| 20260905114511 | 33 | 158 | 4.8 | 12.9 | 0.00 | 0.00 | 0.00 | 32 | 1016.3 |
| 20260905113030 | 33 | 248 | 4.8 | 12.9 | 0.00 | 0.00 | 0.00 | 32 | 1016.4 |
| 20260905111527 | 33 | 207 | 3.2 | 6.4 | 0.00 | 0.00 | 0.00 | 33 | 1016.5 |
| 20260905110025 | 33 | 233 | 4.8 | 12.9 | 0.00 | 0.00 | 0.00 | 33 | 1016.6 |
| 20260905104526 | 33 | 235 | 3.2 | 11.3 | 0.00 | 0.00 | 0.00 | 34 | 1016.8 |
| 20260905103022 | 32 | 219 | 6.4 | 16.1 | 0.00 | 0.00 | 0.00 | 35 | 1016.9 |
| 20260905101525 | 32 | 298 | 3.2 | 14.5 | 0.00 | 0.00 | 0.00 | 36 | 1017.0 |
| 20260905100017 | 32 | 218 | 3.2 | 9.7 | 0.00 | 0.00 | 0.00 | 35 | 1017.2 |
| 20260905094514 | 32 | 270 | 3.2 | 12.9 | 0.00 | 0.00 | 0.00 | 37 | 1017.4 |
| 20260905093011 | 32 | 263 | 6.4 | 12.9 | 0.00 | 0.00 | 0.00 | 37 | 1017.4 |
| 20260905090006 | 31 | 308 | 0.0 | 6.4 | 0.00 | 0.00 | 0.00 | 41 | 1017.7 |
| 20260905084502 | 30 | 234 | 1.6 | 6.4 | 0.00 | 0.00 | 0.00 | 43 | 1017.8 |
| 20260905083059 | 30 | 276 | 0.0 | 8.0 | 0.00 | 0.00 | 0.00 | 46 | 1017.8 |
| 20260905081554 | 29 | 214 | 3.2 | 11.3 | 0.00 | 0.00 | 0.00 | 47 | 1017.8 |
| 20260905080055 | 28 | 254 | 3.2 | 11.3 | 0.00 | 0.00 | 0.00 | 50 | 1017.9 |
| 20260905074546 | 28 | 255 | 6.4 | 11.3 | 0.00 | 0.00 | 0.00 | 51 | 1017.8 |